Location: Cactus School
(34.5700°N, 118.0931°W)
Time: 03:16:06
(UTC-07:00)

Vanguard 1 Rocket - Visible Passes

Search period start: 17 April 2024 00:00
Search period end: 27 April 2024 00:00
Orbit: 652 x 4219 km, 34.3° (Epoch: 16 April)

Date Brightness Start Highest point End Pass type
(mag) Time Alt. Az. Time Alt. Az. Time Alt. Az.
17 Apr 10.9 02:18:18 26° SSE 02:18:18 26° SSE 02:27:20 10° SE visible
17 Apr 10.9 04:35:39 20° SW 04:36:02 20° SW 04:51:37 10° S visible
17 Apr 7.6 19:53:04 10° WSW 19:58:08 69° SSE 20:06:54 10° E visible
17 Apr 8.4 22:16:51 10° W 22:24:05 87° S 22:26:39 59° ESE visible
18 Apr 10.1 00:41:20 10° W 01:11:42 11° SE 01:12:01 10° SE visible
18 Apr 11.0 03:29:02 25° S 03:29:02 25° S 03:40:22 10° SSE visible
18 Apr 8.0 21:05:48 10° W 21:11:43 89° S 21:18:32 24° E visible
18 Apr 9.0 23:29:52 10° W 23:35:44 54° WSW 23:35:44 54° WSW visible
19 Apr 11.0 02:22:18 17° SSE 02:22:18 17° SSE 02:26:56 10° SSE visible
19 Apr 11.2 04:39:38 14° SSW 04:39:38 14° SSW 04:47:47 10° SSW visible
19 Apr 7.5 19:54:48 10° WSW 19:59:49 79° SSE 20:08:22 10° E visible
19 Apr 8.3 22:18:41 10° W 22:25:44 82° S 22:27:38 64° ESE visible
20 Apr 10.3 00:43:13 10° W 01:15:28 - SE 00:44:49 17° W visible
20 Apr 11.3 03:32:47 17° S 03:32:47 17° S 03:38:36 10° S visible
20 Apr 7.9 21:07:37 10° W 21:13:26 88° S 21:19:31 26° E visible
20 Apr 9.2 23:31:41 10° W 23:36:42 45° WSW 23:36:42 45° WSW visible
21 Apr 11.5 02:25:49 10° SSE 02:25:49 10° SSE 02:26:07 10° SSE visible
21 Apr 7.5 19:56:36 10° W 20:01:32 85° S 20:09:50 10° E visible
21 Apr 8.3 22:20:30 10° W 22:27:22 75° SSW 22:28:37 67° SE visible
22 Apr 10.4 00:45:14 10° W 00:45:48 12° W 00:45:48 12° W visible
22 Apr 7.8 21:09:26 10° W 21:15:09 85° S 21:20:30 28° E visible
22 Apr 9.3 23:33:34 10° W 23:37:42 35° WSW 23:37:42 35° WSW visible
23 Apr 7.4 19:58:24 10° W 20:03:16 89° S 20:11:20 10° E visible
23 Apr 8.3 22:22:18 10° W 22:28:59 65° SSW 22:29:37 63° S visible
24 Apr 7.8 21:11:15 10° W 21:16:50 78° S 21:21:33 31° ESE visible
24 Apr 9.6 23:35:32 10° W 23:38:44 27° WSW 23:38:44 27° WSW visible
25 Apr 7.4 20:00:12 10° W 20:05:00 87° S 20:12:49 10° E visible
25 Apr 8.4 22:24:09 10° W 22:30:37 54° SSW 22:30:41 54° SSW visible
26 Apr 7.8 21:13:03 10° W 21:18:30 68° SSW 21:22:38 32° ESE visible
26 Apr 9.8 23:37:40 10° W 23:39:50 20° WSW 23:39:50 20° WSW visible
